Tracking 18843 objects as of 20-November-2017
HD Live streaming from Space Station
objects crossing your sky now

COSMOS 1799

Track COSMOS 1799 now!
10-day predictions
COSMOS 1799 is classified as:


NORAD ID: 17143
Int'l Code: 1986-092F
Perigee: 1,420.1 km
Apogee: 1,479.6 km
Inclination: 74.0 °
Period: 114.7 minutes
Semi major axis: 7820 km
RCS: 0.7053 m2 (medium)
Launch date: November 21, 1986
Source: Commonwealth of Independent States (former USSR) (CIS)
Launch site: PLESETSK MISSILE AND SPACE COMPLEX (PKMTR)
aabbcc
Your satellite tracking list
Your tracking list is empty




NASA's NSSDC Master Catalog

Two Line Element Set (TLE):
1 17143U 86092F   17324.61220944 +.00000003 +00000-0 +11714-3 0  9996
2 17143 074.0159 011.9747 0038017 227.9280 245.0359 12.55228066420429
Source of the keplerian elements: AFSPC